This is the latest recevied weather packets stored in our database for station/object DM3DP. If no packets are shown the sender has not sent any weather packets the latest 10 day(s).
| Time | Temp. | Humidity | Pressure | Rain* | Wind** | Luminosity | Snow |
|---|---|---|---|---|---|---|---|
| 1777120162 | 14.44° C | 59% | 1018.3 hPa | 0 mm | - | 697 W/m² | - |
| 1777119833 | 13.89° C | 62% | 1018.3 hPa | 0 mm | - | 698 W/m² | - |
| 1777119503 | 13.89° C | 62% | 1018.3 hPa | 0 mm | - | 709 W/m² | - |
| 1777119172 | 13.89° C | 63% | 1018.4 hPa | 0 mm | - | 713 W/m² | - |
| 1777118843 | 13.33° C | 66% | 1018.4 hPa | 0 mm | - | 712 W/m² | - |
| 1777118512 | 13.33° C | 66% | 1018.5 hPa | 0 mm | - | 733 W/m² | - |
| 1777118183 | 12.78° C | 67% | 1018.8 hPa | 0 mm | - | 736 W/m² | - |
| 1777117853 | 12.78° C | 69% | 1018.9 hPa | 0 mm | - | 735 W/m² | - |
| 1777117523 | 12.78° C | 69% | 1018.9 hPa | 0 mm | - | 741 W/m² | - |
| 1777117192 | 12.78° C | 70% | 1018.9 hPa | 0 mm | - | 728 W/m² | - |
| 1777116862 | 12.78° C | 70% | 1018.9 hPa | 0 mm | - | 735 W/m² | - |
| 1777116532 | 12.78° C | 70% | 1018.9 hPa | 0 mm | - | 736 W/m² | - |
| 1777116203 | 12.22° C | 71% | 1018.9 hPa | 0 mm | - | 734 W/m² | - |
| 1777115872 | 11.11° C | 75% | 1018.9 hPa | 0 mm | - | 520 W/m² | - |
| 1777115543 | 11.11° C | 75% | 1019 hPa | 0 mm | - | 381 W/m² | - |
| 1777115212 | 11.11° C | 75% | 1019.1 hPa | 0 mm | - | 738 W/m² | - |
| 1777114883 | 11.11° C | 77% | 1019.1 hPa | 0 mm | - | 734 W/m² | - |
| 1777114553 | 11.11° C | 77% | 1019.2 hPa | 0 mm | - | 748 W/m² | - |
| 1777114223 | 11.11° C | 77% | 1019.2 hPa | 0 mm | - | 729 W/m² | - |
| 1777113892 | 11.11° C | 79% | 1019.2 hPa | 0 mm | - | 783 W/m² | - |
| 1777113563 | 11.11° C | 80% | 1019.2 hPa | 0 mm | - | 754 W/m² | - |
| 1777113233 | 11.11° C | 80% | 1019.2 hPa | 0 mm | - | 404 W/m² | - |
| 1777112902 | 11.11° C | 82% | 1019.3 hPa | 0 mm | - | 635 W/m² | - |
| 1777112572 | 11.11° C | 82% | 1019.4 hPa | 0 mm | - | 283 W/m² | - |
| 1777112242 | 11.11° C | 82% | 1019.5 hPa | 0 mm | - | 253 W/m² | - |
* Rain latest hour (hover to see other rain measurements)
** Current wind speed in m/s (hover to see current wind gust speed)